Pensacola, FL

8:48 PM CDT on October 22, 2017 (GMT -0500)
Pensacola Regional

Weather History for KPNS - June, 2013

Change the Weather History Date:

Wednesday, June 19, 2013

  Actual Average Record
Temperature  
Mean Temperature 81 °F 81 °F  
Max Temperature 88 °F 89 °F 98 °F (1992)
Min Temperature 73 °F 73 °F 64 °F (1995)
Cooling Degree Days 16 16  
Month to date cooling degree days 316 282  
Year to date cooling degree days 758 730  
Since 1 June cooling degree days 316 282  
Growing Degree Days 30 (Base 50)    
Moisture  
Dew Point 72 °F    
Average Humidity 75    
Maximum Humidity 94    
Minimum Humidity 55    
Precipitation  
Precipitation 1.30 in 0.24 in 2.18 in (1972)
Month to date precipitation 6.97 3.87  
Year to date precipitation 29.01 27.87  
Sea Level Pressure  
Sea Level Pressure 30.00 in    
Wind  
Wind Speed 4 mph (WSW)    
Max Wind Speed 20 mph    
Max Gust Speed 24 mph    
Visibility 8 miles    
Events Rain , Thunderstorm    
T = Trace of Precipitation, MM = Missing Value Source: NWS Daily Summary

Daily Weather History Graph

Daily Weather History Graph

Search for Another Location

Airport or City:

Trip Planner

Search our weather history database for the weather conditions in past years. The results will help you decide how hot, cold, wet, or windy it might be!

Date:

Astronomy

Jun. 19, 2013 Rise Set
Actual Time 5:46 AM CDT 7:53 PM CDT
Civil Twilight 5:19 AM CDT 8:21 PM CDT
Nautical Twilight 4:45 AM CDT 8:55 PM CDT
Astronomical Twilight 4:09 AM CDT 9:31 PM CDT
Moon 3:56 PM CDT (6/19) 2:17 AM CDT (6/19)
Length of Visible Light 15h 02m
Length of Day
14h 07m
Waxing Gibbous, 80% of the Moon is Illuminated
Jun 19
Waxing Gibbous
Jun 23
Full
Jun 29
Last Quarter
Jul 8
New
Jul 15
First Quarter

Hourly Weather History & Observations

Time (CDT) Temp. Heat Index Dew Point Humidity Pressure Visibility Wind Dir Wind Speed Gust Speed Precip Events Conditions
12:30 AM 73.4 °F - 71.6 °F 94% 30.00 in 9.0 mi WSW 6.9 mph - 0.00 in Rain , Thunderstorm Light Rain
12:53 AM 73.9 °F - 70.0 °F 87% 30.01 in 6.0 mi West 5.8 mph - 0.05 in Rain , Thunderstorm Light Thunderstorms and Rain
1:21 AM 73.4 °F - 69.8 °F 88% 30.00 in 3.0 mi SSW 5.8 mph - 0.09 in Rain Light Rain
1:30 AM 73.4 °F - 71.6 °F 94% 30.00 in 10.0 mi SSW 3.5 mph - 0.09 in Rain , Thunderstorm Light Rain
1:45 AM 73.4 °F - 71.6 °F 94% 30.00 in 10.0 mi SSW 4.6 mph - 0.10 in Rain Light Rain
1:53 AM 73.0 °F - 71.1 °F 93% 29.99 in 8.0 mi SSE 3.5 mph - 0.10 in Rain Light Rain
2:53 AM 73.0 °F - 71.1 °F 93% 29.95 in 10.0 mi South 3.5 mph - 0.00 in   Partly Cloudy
3:53 AM 73.9 °F - 72.0 °F 93% 29.94 in 10.0 mi SSW 3.5 mph - N/A   Clear
4:53 AM 75.0 °F - 72.0 °F 90% 29.95 in 10.0 mi SW 5.8 mph - N/A   Clear
5:53 AM 75.0 °F - 72.0 °F 90% 29.97 in 10.0 mi WNW 3.5 mph - N/A   Clear
6:53 AM 75.9 °F - 73.0 °F 91% 29.98 in 10.0 mi Calm Calm - N/A   Clear
7:53 AM 79.0 °F - 73.9 °F 84% 30.00 in 10.0 mi WSW 4.6 mph - N/A   Clear
8:53 AM 84.0 °F 91.2 °F 73.9 °F 72% 30.02 in 10.0 mi WNW 6.9 mph - N/A   Scattered Clouds
9:19 AM 82.4 °F 89.5 °F 75.2 °F 79% 30.02 in 10.0 mi North 9.2 mph - N/A   Mostly Cloudy
9:53 AM 82.9 °F 89.4 °F 73.9 °F 74% 30.02 in 10.0 mi NNW 5.8 mph - N/A   Mostly Cloudy
10:53 AM 87.1 °F 93.6 °F 72.0 °F 61% 30.02 in 10.0 mi WNW 10.4 mph - N/A   Mostly Cloudy
11:37 AM 84.2 °F 90.9 °F 73.4 °F 70% 30.02 in 10.0 mi WNW 11.5 mph - 0.00 in Rain Light Rain
11:53 AM 87.1 °F 91.3 °F 69.1 °F 55% 30.02 in 10.0 mi West 8.1 mph - 0.00 in   Mostly Cloudy
12:53 PM 88.0 °F 95.6 °F 73.0 °F 61% 30.01 in 10.0 mi North 9.2 mph - N/A   Mostly Cloudy
1:53 PM 84.0 °F 89.6 °F 72.0 °F 67% 30.01 in 10.0 mi NNE 5.8 mph - 0.00 in   Partly Cloudy
2:11 PM 80.6 °F 85.4 °F 73.4 °F 79% 29.99 in 7.0 mi East 8.1 mph - 0.06 in Thunderstorm Thunderstorm
2:26 PM 77.0 °F - 71.6 °F 83% 30.02 in 1.0 mi North 13.8 mph 21.9 mph 0.14 in Rain Heavy Rain
2:41 PM 73.4 °F - 66.2 °F 78% 30.00 in 5.0 mi Variable 5.8 mph - 0.56 in Rain Light Rain
2:53 PM 73.0 °F - 69.1 °F 87% 30.01 in 5.0 mi ENE 8.1 mph - 0.72 in Rain Rain
3:53 PM 79.0 °F - 69.1 °F 72% 29.99 in 10.0 mi SW 5.8 mph - 0.00 in Rain , Thunderstorm Light Thunderstorms and Rain
4:53 PM 81.0 °F 85.2 °F 72.0 °F 74% 29.98 in 10.0 mi Calm Calm - 0.04 in Thunderstorm Thunderstorm
5:08 PM 80.6 °F 85.4 °F 73.4 °F 79% 29.97 in 10.0 mi South 4.6 mph - N/A   Clear
5:53 PM 82.0 °F 87.4 °F 73.0 °F 74% 29.98 in 10.0 mi South 3.5 mph - N/A   Clear
6:53 PM 82.0 °F 87.9 °F 73.9 °F 76% 29.99 in 10.0 mi Calm Calm - N/A   Clear
7:19 PM 80.6 °F 86.2 °F 75.2 °F 84% 30.00 in 1.5 mi ENE 6.9 mph - 0.05 in Rain Heavy Rain
7:27 PM 75.2 °F - 69.8 °F 83% 29.99 in 0.5 mi ESE 16.1 mph 24.2 mph 0.44 in Rain Heavy Rain
7:37 PM 75.2 °F - 69.8 °F 83% 30.00 in 7.0 mi East 4.6 mph - 0.44 in   Overcast
7:53 PM 75.0 °F - 71.1 °F 87% 30.00 in 10.0 mi Calm Calm - 0.44 in   Overcast
8:53 PM 73.9 °F - 71.1 °F 91% 30.01 in 10.0 mi Calm Calm - N/A   Mostly Cloudy
9:00 PM 73.4 °F - 71.6 °F 94% 30.01 in 10.0 mi Calm Calm - N/A   Clear
9:53 PM 75.0 °F - 72.0 °F 90% 30.02 in 10.0 mi Calm Calm - N/A   Clear
10:53 PM 75.0 °F - 73.0 °F 94% 30.04 in 10.0 mi Calm Calm - N/A   Clear
11:53 PM 75.0 °F - 73.0 °F 94% 30.03 in 10.0 mi Calm Calm - N/A   Clear